Tracking 32412 objects as of 7-Dec-2025
HD Live streaming from Space Station
objects crossing your sky now

EXPLORER 29 (GEOS 1)

Track EXPLORER 29 (GEOS 1) now!
10-day predictions
EXPLORER 29 (GEOS 1) is classified as:


NORAD ID: 1726
Int'l Code: 1965-089A
Perigee: 1,119.9 km
Apogee: 2,282.4 km
Inclination: 59.4 °
Period: 120.3 minutes
Semi major axis: 8072 km
RCS: 1.3858 m2 (large)
Launch date: November 6, 1965
Source: United States (US)
Launch site: AIR FORCE EASTERN TEST RANGE (AFETR)
Your satellite tracking list
Your tracking list is empty




NASA's NSSDC Master Catalog

Two Line Element Set (TLE):
1 01726U 65089A   25340.64335573 -.00000113  00000-0 -22087-3 0  9993
2 01726  59.3785 101.9040 0720079  95.1083 286.2476 11.97074724626619
Source of the keplerian elements: AFSPC